Powrót do katalogu

SL-8 DEB

AktywnyLEO
NORAD 1335·DEBRIS·🇷🇺 Russia

Wystrzelony Mar 15, 1965 z Baikonur Cosmodrome

Loading…

Następne Przeloty (najbliższe 24 godziny)

TLE

ŚwieżeSource: Space-Track

Epoka: Sep 14, 2026, 08:02 UTC

1 01335U 65020E   26257.33490659  .00000659  00000-0  23350-3 0  9992
2 01335  56.0775  14.9142 0522367 300.6548  54.3917 13.87924489 22363

Śledź SL-8 DEB w czasie rzeczywistym z AllMySat

Download on the App Store